DAL1020 KDEN-KOMA

Flight info

Callsign DAL1020
Flight time 1h 18m
Altitude 37000
Route EEONS8 WYNDM HCT GRI HOWRY3
Aircraft A20N/M-SDE2E3FGHIRWXY/LB1

Departure

Time 2026-04-21 02:40
Airport Denver International Airport (KDEN)

Arrival

Time 2026-04-21 03:59
Airport Eppley Airfield (KOMA)
Time Latitude Longitude Altitude Speed Heading
2026-04-21 02:17 39.85935 -104.68002 5379 ft 0 kts 180°
2026-04-21 02:24 39.85938 -104.68002 5383 ft 0 kts 180°
2026-04-21 02:27 39.85948 -104.68002 5380 ft 2 kts 180°
2026-04-21 02:27 39.85959 -104.68002 5383 ft 2 kts 166°
2026-04-21 02:28 39.85971 -104.68010 5382 ft 4 kts 105°
2026-04-21 02:28 39.85972 -104.68014 5382 ft 0 kts 93°
2026-04-21 02:29 39.85972 -104.68015 5381 ft 2 kts 95°
2026-04-21 02:29 39.85978 -104.68035 5377 ft 2 kts 142°
2026-04-21 02:29 39.85991 -104.68015 5384 ft 2 kts 10°
2026-04-21 02:30 39.85997 -104.68026 5382 ft 5 kts 300°
2026-04-21 02:30 39.85996 -104.68035 5381 ft 5 kts 250°
2026-04-21 02:30 39.86011 -104.68023 5384 ft 0 kts 134°
2026-04-21 02:30 39.86012 -104.68021 5384 ft 2 kts 116°
2026-04-21 02:31 39.86009 -104.67988 5383 ft 2 kts 91°
2026-04-21 02:33 39.86009 -104.67984 5383 ft 3 kts 89°
2026-04-21 02:33 39.86062 -104.67876 5381 ft 25 kts 50°
2026-04-21 02:34 39.86141 -104.67630 5375 ft 35 kts 95°
2026-04-21 02:34 39.86131 -104.67291 5376 ft 40 kts 90°
2026-04-21 02:34 39.86128 -104.66917 5379 ft 42 kts 91°
2026-04-21 02:34 39.86123 -104.66553 5386 ft 22 kts 97°
2026-04-21 02:35 39.86108 -104.66431 5392 ft 15 kts 96°
2026-04-21 02:35 39.86110 -104.66270 5388 ft 20 kts 68°
2026-04-21 02:35 39.86246 -104.66228 5390 ft 24 kts
2026-04-21 02:35 39.86434 -104.66226 5390 ft 29 kts
2026-04-21 02:36 39.86654 -104.66223 5387 ft 34 kts
2026-04-21 02:36 39.86908 -104.66218 5372 ft 39 kts
2026-04-21 02:36 39.87183 -104.66216 5375 ft 39 kts
2026-04-21 02:36 39.87447 -104.66212 5390 ft 37 kts
2026-04-21 02:37 39.87651 -104.66211 5393 ft 0 kts 360°
2026-04-21 02:37 39.87654 -104.66211 5393 ft 0 kts 360°
2026-04-21 02:37 39.87659 -104.66211 5389 ft 4 kts 360°
2026-04-21 02:38 39.87744 -104.66187 5392 ft 18 kts 47°
2026-04-21 02:38 39.87752 -104.66109 5390 ft 2 kts 86°
2026-04-21 02:38 39.87755 -104.66062 5390 ft 8 kts 86°
2026-04-21 02:38 39.87757 -104.65993 5389 ft 0 kts 89°
2026-04-21 02:40 39.87757 -104.65819 5389 ft 67 kts 91°
2026-04-21 02:40 39.87744 -104.64749 5385 ft 164 kts 90°
2026-04-21 02:40 39.87735 -104.62960 5566 ft 223 kts 90°
2026-04-21 02:40 39.87806 -104.60855 6459 ft 243 kts 80°
2026-04-21 02:41 39.88106 -104.59421 6987 ft 253 kts 73°
2026-04-21 02:41 39.88701 -104.57225 7786 ft 261 kts 71°
2026-04-21 02:41 39.89269 -104.54956 8607 ft 266 kts 73°
2026-04-21 02:41 39.89759 -104.52610 9461 ft 271 kts 75°
2026-04-21 02:42 39.90187 -104.50212 10321 ft 271 kts 77°
2026-04-21 02:42 39.90567 -104.47878 11466 ft 256 kts 77°
2026-04-21 02:42 39.90924 -104.45609 12246 ft 260 kts 77°
2026-04-21 02:42 39.91304 -104.43202 12521 ft 282 kts 77°
2026-04-21 02:43 39.91714 -104.40606 12691 ft 302 kts 77°
2026-04-21 02:43 39.92159 -104.37852 12829 ft 319 kts 76°
2026-04-21 02:43 39.92646 -104.34972 12949 ft 332 kts 76°
2026-04-21 02:43 39.93156 -104.31997 13032 ft 342 kts 76°
2026-04-21 02:44 39.93679 -104.28940 13103 ft 350 kts 76°
2026-04-21 02:44 39.94208 -104.25830 13292 ft 351 kts 76°
2026-04-21 02:44 39.94729 -104.22752 13789 ft 343 kts 76°
2026-04-21 02:44 39.95231 -104.19761 14456 ft 332 kts 76°
2026-04-21 02:45 39.95718 -104.16858 15144 ft 324 kts 76°
2026-04-21 02:45 39.96196 -104.14021 15858 ft 320 kts 76°
2026-04-21 02:45 39.96687 -104.11112 16545 ft 339 kts 76°
2026-04-21 02:45 39.97213 -104.07991 16969 ft 366 kts 76°
2026-04-21 02:46 39.97776 -104.04636 17369 ft 391 kts 77°
2026-04-21 02:46 39.98363 -104.01124 18193 ft 400 kts 77°
2026-04-21 02:46 39.98955 -103.97561 19077 ft 404 kts 77°
2026-04-21 02:46 39.99552 -103.93958 19958 ft 409 kts 77°
2026-04-21 02:47 40.00156 -103.90307 20821 ft 414 kts 76°
2026-04-21 02:47 40.00767 -103.86613 21671 ft 420 kts 76°
2026-04-21 02:47 40.01385 -103.82866 22498 ft 425 kts 76°
2026-04-21 02:47 40.02009 -103.79074 23371 ft 430 kts 76°
2026-04-21 02:48 40.02639 -103.75245 24105 ft 434 kts 76°
2026-04-21 02:48 40.03274 -103.71377 24806 ft 438 kts 76°
2026-04-21 02:48 40.03913 -103.67472 25484 ft 442 kts 76°
2026-04-21 02:48 40.04556 -103.63531 26147 ft 446 kts 76°
2026-04-21 02:49 40.05205 -103.59546 26799 ft 451 kts 76°
2026-04-21 02:49 40.05858 -103.55528 27428 ft 455 kts 76°
2026-04-21 02:49 40.06516 -103.51471 28036 ft 459 kts 76°
2026-04-21 02:49 40.07177 -103.47379 28577 ft 464 kts 76°
2026-04-21 02:50 40.07847 -103.43229 29154 ft 469 kts 76°
2026-04-21 02:50 40.08520 -103.39044 29730 ft 472 kts 76°
2026-04-21 02:50 40.09197 -103.34828 30252 ft 476 kts 76°
2026-04-21 02:50 40.09876 -103.30584 30752 ft 480 kts 76°
2026-04-21 02:51 40.10560 -103.26305 31264 ft 482 kts 76°
2026-04-21 02:51 40.11243 -103.22015 31862 ft 482 kts 76°
2026-04-21 02:51 40.11923 -103.17733 32514 ft 480 kts 76°
2026-04-21 02:51 40.12598 -103.13468 33156 ft 479 kts 76°
2026-04-21 02:52 40.13275 -103.09196 33555 ft 482 kts 77°
2026-04-21 02:52 40.13952 -103.04907 34077 ft 482 kts 77°
2026-04-21 02:52 40.14624 -103.00631 34654 ft 479 kts 77°
2026-04-21 02:52 40.15290 -102.96379 35246 ft 476 kts 76°
2026-04-21 02:53 40.15942 -102.92208 35797 ft 473 kts 76°
2026-04-21 02:53 40.16598 -102.88006 36343 ft 471 kts 76°
2026-04-21 02:53 40.17250 -102.83816 36763 ft 469 kts 76°
2026-04-21 02:53 40.17898 -102.79649 36867 ft 467 kts 76°
2026-04-21 02:54 40.18543 -102.75493 36875 ft 468 kts 76°
2026-04-21 02:54 40.19840 -102.67102 36870 ft 471 kts 76°
2026-04-21 02:55 40.21128 -102.58715 36868 ft 470 kts 76°
2026-04-21 02:55 40.22411 -102.50324 36870 ft 470 kts 76°
2026-04-21 02:56 40.23686 -102.41933 36871 ft 470 kts 76°
2026-04-21 02:56 40.25598 -102.29280 36865 ft 473 kts 76°
2026-04-21 02:57 40.26864 -102.20843 36867 ft 472 kts 76°
2026-04-21 02:57 40.28125 -102.12399 36865 ft 472 kts 76°
2026-04-21 02:58 40.29380 -102.03956 36873 ft 472 kts 76°
2026-04-21 02:58 40.30637 -101.95450 36863 ft 476 kts 77°
2026-04-21 02:59 40.31890 -101.86924 36869 ft 476 kts 77°
2026-04-21 02:59 40.33135 -101.78406 36873 ft 476 kts 77°
2026-04-21 03:00 40.34373 -101.69887 36876 ft 476 kts 77°
2026-04-21 03:00 40.35611 -101.61331 36877 ft 479 kts 77°
2026-04-21 03:01 40.36843 -101.52761 36875 ft 478 kts 77°
2026-04-21 03:01 40.38064 -101.44253 36870 ft 478 kts 77°
2026-04-21 03:02 40.39289 -101.35685 36866 ft 478 kts 77°
2026-04-21 03:02 40.40513 -101.27114 36857 ft 478 kts 77°
2026-04-21 03:03 40.41740 -101.18472 36853 ft 478 kts 77°
2026-04-21 03:03 40.42945 -101.09949 36846 ft 478 kts 77°
2026-04-21 03:04 40.44151 -101.01364 36837 ft 478 kts 77°
2026-04-21 03:04 40.45367 -100.92785 36837 ft 477 kts 75°
2026-04-21 03:05 40.47122 -100.84399 36848 ft 476 kts 71°
2026-04-21 03:05 40.48924 -100.76028 36854 ft 476 kts 72°
2026-04-21 03:06 40.50718 -100.67655 36840 ft 476 kts 72°
2026-04-21 03:06 40.52505 -100.59276 36846 ft 476 kts 72°
2026-04-21 03:07 40.54286 -100.50893 36839 ft 476 kts 72°
2026-04-21 03:07 40.56059 -100.42513 36831 ft 476 kts 72°
2026-04-21 03:08 40.57827 -100.34125 36836 ft 476 kts 72°
2026-04-21 03:08 40.59588 -100.25735 36834 ft 476 kts 72°
2026-04-21 03:09 40.61341 -100.17346 36839 ft 476 kts 72°
2026-04-21 03:09 40.63094 -100.08930 36846 ft 476 kts 72°
2026-04-21 03:10 40.64836 -100.00523 36833 ft 476 kts 73°
2026-04-21 03:10 40.66573 -99.92113 36831 ft 476 kts 73°
2026-04-21 03:11 40.68305 -99.83692 36838 ft 476 kts 73°
2026-04-21 03:11 40.70030 -99.75270 36831 ft 476 kts 73°
2026-04-21 03:12 40.71752 -99.66834 36836 ft 476 kts 73°
2026-04-21 03:12 40.73454 -99.58457 36844 ft 476 kts 73°
2026-04-21 03:13 40.75162 -99.50019 36838 ft 476 kts 73°
2026-04-21 03:13 40.76863 -99.41575 36838 ft 477 kts 73°
2026-04-21 03:14 40.78559 -99.33122 36844 ft 477 kts 73°
2026-04-21 03:14 40.80250 -99.24666 36844 ft 477 kts 73°
2026-04-21 03:15 40.81092 -99.20436 36695 ft 476 kts 73°
2026-04-21 03:15 40.81932 -99.16214 36435 ft 476 kts 73°
2026-04-21 03:15 40.82770 -99.11990 36177 ft 476 kts 73°
2026-04-21 03:15 40.83608 -99.07758 35938 ft 477 kts 73°
2026-04-21 03:16 40.84445 -99.03522 35684 ft 477 kts 73°
2026-04-21 03:16 40.85282 -98.99276 35433 ft 477 kts 73°
2026-04-21 03:16 40.86117 -98.95032 35186 ft 478 kts 73°
2026-04-21 03:16 40.86953 -98.90779 34945 ft 478 kts 73°
2026-04-21 03:17 40.87787 -98.86522 34701 ft 479 kts 73°
2026-04-21 03:17 40.88621 -98.82257 34456 ft 481 kts 73°
2026-04-21 03:17 40.89456 -98.77978 34218 ft 481 kts 73°
2026-04-21 03:17 40.90289 -98.73698 33986 ft 481 kts 74°
2026-04-21 03:18 40.91119 -98.69421 33735 ft 481 kts 73°
2026-04-21 03:18 40.91948 -98.65134 33463 ft 482 kts 73°
2026-04-21 03:18 40.92778 -98.60841 33200 ft 482 kts 73°
2026-04-21 03:18 40.93609 -98.56541 32933 ft 483 kts 73°
2026-04-21 03:19 40.94438 -98.52235 32671 ft 483 kts 73°
2026-04-21 03:19 40.95267 -98.47923 32402 ft 484 kts 73°
2026-04-21 03:19 40.96095 -98.43607 32164 ft 485 kts 73°
2026-04-21 03:19 40.96923 -98.39280 31904 ft 485 kts 73°
2026-04-21 03:20 40.97739 -98.35011 31659 ft 486 kts 74°
2026-04-21 03:20 40.98610 -98.30685 31413 ft 488 kts 69°
2026-04-21 03:20 40.99727 -98.26444 31166 ft 488 kts 68°
2026-04-21 03:20 41.00889 -98.22164 30914 ft 488 kts 68°
2026-04-21 03:21 41.02037 -98.17941 30670 ft 488 kts 68°
2026-04-21 03:21 41.03179 -98.13719 30427 ft 486 kts 68°
2026-04-21 03:21 41.04311 -98.09503 30192 ft 485 kts 68°
2026-04-21 03:21 41.05435 -98.05307 29943 ft 483 kts 68°
2026-04-21 03:22 41.06538 -98.01174 29667 ft 481 kts 68°
2026-04-21 03:22 41.07648 -97.97008 29392 ft 479 kts 69°
2026-04-21 03:22 41.08755 -97.92842 29130 ft 480 kts 68°
2026-04-21 03:22 41.09862 -97.88671 28851 ft 477 kts 68°
2026-04-21 03:23 41.10959 -97.84531 28589 ft 475 kts 69°
2026-04-21 03:23 41.12051 -97.80404 28323 ft 473 kts 69°
2026-04-21 03:23 41.13135 -97.76296 28052 ft 471 kts 69°
2026-04-21 03:23 41.14215 -97.72204 27788 ft 469 kts 69°
2026-04-21 03:24 41.15288 -97.68126 27527 ft 467 kts 69°
2026-04-21 03:24 41.16355 -97.64067 27265 ft 465 kts 69°
2026-04-21 03:24 41.17416 -97.60023 27003 ft 463 kts 69°
2026-04-21 03:24 41.18471 -97.55990 26765 ft 462 kts 69°
2026-04-21 03:25 41.19523 -97.51966 26509 ft 461 kts 69°
2026-04-21 03:25 41.20570 -97.47958 26254 ft 458 kts 69°
2026-04-21 03:25 41.21611 -97.43964 26006 ft 457 kts 69°
2026-04-21 03:25 41.22646 -97.39986 25760 ft 455 kts 69°
2026-04-21 03:26 41.23674 -97.36029 25514 ft 453 kts 69°
2026-04-21 03:26 41.24699 -97.32078 25274 ft 451 kts 69°
2026-04-21 03:26 41.25717 -97.28147 25036 ft 449 kts 69°
2026-04-21 03:26 41.26729 -97.24232 24798 ft 447 kts 69°
2026-04-21 03:27 41.27737 -97.20327 24564 ft 446 kts 69°
2026-04-21 03:27 41.28740 -97.16434 24330 ft 444 kts 69°
2026-04-21 03:27 41.29401 -97.13866 24178 ft 443 kts 69°
2026-04-21 03:27 41.30395 -97.09999 23945 ft 441 kts 69°
2026-04-21 03:28 41.31384 -97.06144 23715 ft 440 kts 69°
2026-04-21 03:28 41.32368 -97.02300 23482 ft 438 kts 70°
2026-04-21 03:28 41.33663 -96.97238 23124 ft 435 kts 70°
2026-04-21 03:28 41.34318 -96.94669 22948 ft 433 kts 70°
2026-04-21 03:29 41.35283 -96.90880 22693 ft 432 kts 70°
2026-04-21 03:29 41.36017 -96.87007 22435 ft 433 kts 81°
2026-04-21 03:29 41.36119 -96.83008 22184 ft 433 kts 94°
2026-04-21 03:29 41.35596 -96.79067 21918 ft 430 kts 103°
2026-04-21 03:30 41.34915 -96.75209 21662 ft 427 kts 103°
2026-04-21 03:30 41.34239 -96.71365 21409 ft 426 kts 103°
2026-04-21 03:30 41.33566 -96.67528 21157 ft 425 kts 103°
2026-04-21 03:30 41.32897 -96.63713 20896 ft 422 kts 103°
2026-04-21 03:31 41.32233 -96.59933 20429 ft 418 kts 103°
2026-04-21 03:31 41.31574 -96.56192 19841 ft 413 kts 103°
2026-04-21 03:31 41.30920 -96.52485 19131 ft 411 kts 103°
2026-04-21 03:31 41.30277 -96.48846 18694 ft 400 kts 103°
2026-04-21 03:32 41.29637 -96.45230 17855 ft 402 kts 103°
2026-04-21 03:32 41.29007 -96.41678 17148 ft 398 kts 103°
2026-04-21 03:32 41.28364 -96.38067 16443 ft 394 kts 103°
2026-04-21 03:32 41.27737 -96.34553 15644 ft 387 kts 102°
2026-04-21 03:33 41.27125 -96.31133 14674 ft 383 kts 102°
2026-04-21 03:33 41.26511 -96.27711 13735 ft 379 kts 102°
2026-04-21 03:33 41.26074 -96.24285 12710 ft 372 kts 88°
2026-04-21 03:33 41.26467 -96.20948 11682 ft 363 kts 69°
2026-04-21 03:34 41.27361 -96.17828 10672 ft 360 kts 64°
2026-04-21 03:34 41.28370 -96.14786 9687 ft 358 kts 62°
2026-04-21 03:34 41.29401 -96.11798 8735 ft 353 kts 62°
2026-04-21 03:34 41.30452 -96.08855 7773 ft 351 kts 62°
2026-04-21 03:35 41.31521 -96.05960 6824 ft 348 kts 62°
2026-04-21 03:35 41.32651 -96.02980 5790 ft 384 kts 62°
2026-04-21 03:35 41.33916 -95.99780 4738 ft 394 kts 62°
2026-04-21 03:35 41.35239 -95.96578 3902 ft 393 kts 62°
2026-04-21 03:36 41.36445 -95.93561 4432 ft 344 kts 73°
2026-04-21 03:36 41.37193 -95.90763 5018 ft 309 kts 62°
2026-04-21 03:36 41.38572 -95.88505 5395 ft 323 kts 38°
2026-04-21 03:36 41.40367 -95.86680 5390 ft 327 kts 34°
2026-04-21 03:37 41.42186 -95.84888 5325 ft 320 kts 34°
2026-04-21 03:37 41.43936 -95.83154 5149 ft 309 kts 34°
2026-04-21 03:37 41.45651 -95.81453 5024 ft 312 kts 34°
2026-04-21 03:37 41.47361 -95.79753 4989 ft 305 kts 34°
2026-04-21 03:38 41.49080 -95.78040 4980 ft 309 kts 34°
2026-04-21 03:38 41.50766 -95.76316 4973 ft 309 kts 42°
2026-04-21 03:38 41.52083 -95.74043 4974 ft 312 kts 58°
2026-04-21 03:38 41.53185 -95.71545 4971 ft 312 kts 61°
2026-04-21 03:39 41.54247 -95.69008 4971 ft 313 kts 62°
2026-04-21 03:39 41.55289 -95.66465 4965 ft 311 kts 66°
2026-04-21 03:39 41.55822 -95.63716 4977 ft 306 kts 92°
2026-04-21 03:39 41.55480 -95.60994 4981 ft 292 kts 120°
2026-04-21 03:40 41.54367 -95.58793 4996 ft 277 kts 144°
2026-04-21 03:40 41.52841 -95.57425 4995 ft 263 kts 165°
2026-04-21 03:40 41.51117 -95.56848 4994 ft 252 kts 183°
2026-04-21 03:40 41.49411 -95.57054 4993 ft 242 kts 200°
2026-04-21 03:41 41.47899 -95.57801 4974 ft 216 kts 206°
2026-04-21 03:41 41.46604 -95.58470 4981 ft 187 kts 207°
2026-04-21 03:41 41.45454 -95.59052 4980 ft 167 kts 207°
2026-04-21 03:41 41.44401 -95.59590 4990 ft 165 kts 207°
2026-04-21 03:42 41.43289 -95.60180 4988 ft 182 kts 207°
2026-04-21 03:42 41.42031 -95.60856 4979 ft 201 kts 206°
2026-04-21 03:42 41.40700 -95.61549 4983 ft 212 kts 206°
2026-04-21 03:42 41.39274 -95.62270 4987 ft 222 kts 205°
2026-04-21 03:43 41.37855 -95.62975 4994 ft 215 kts 205°
2026-04-21 03:43 41.36445 -95.63682 4994 ft 219 kts 205°
2026-04-21 03:43 41.35040 -95.64389 4989 ft 209 kts 205°
2026-04-21 03:43 41.33720 -95.65057 5001 ft 198 kts 205°
2026-04-21 03:44 41.32405 -95.65727 4991 ft 208 kts 206°
2026-04-21 03:44 41.31102 -95.66378 4998 ft 191 kts 205°
2026-04-21 03:44 41.29841 -95.67001 4993 ft 211 kts 205°
2026-04-21 03:44 41.28354 -95.67758 4994 ft 234 kts 206°
2026-04-21 03:45 41.26918 -95.68515 4990 ft 209 kts 206°
2026-04-21 03:45 41.25523 -95.69231 4991 ft 219 kts 205°
2026-04-21 03:45 41.24085 -95.69964 5002 ft 227 kts 205°
2026-04-21 03:45 41.22632 -95.70693 4986 ft 208 kts 205°
2026-04-21 03:46 41.21364 -95.71319 4987 ft 186 kts 206°
2026-04-21 03:46 41.20037 -95.72138 5000 ft 230 kts 219°
2026-04-21 03:46 41.19036 -95.73831 4998 ft 241 kts 247°
2026-04-21 03:46 41.18827 -95.76029 4997 ft 246 kts 274°
2026-04-21 03:47 41.19505 -95.78157 5001 ft 260 kts 301°
2026-04-21 03:47 41.20894 -95.79722 4995 ft 272 kts 321°
2026-04-21 03:47 41.22556 -95.80977 4980 ft 275 kts 323°
2026-04-21 03:47 41.24196 -95.82262 4877 ft 273 kts 320°
2026-04-21 03:48 41.25761 -95.83678 4763 ft 270 kts 316°
2026-04-21 03:48 41.27245 -95.85174 4631 ft 269 kts 314°
2026-04-21 03:48 41.28698 -95.86722 4505 ft 266 kts 312°
2026-04-21 03:48 41.30126 -95.88291 4380 ft 266 kts 311°
2026-04-21 03:49 41.31551 -95.89871 4253 ft 267 kts 311°
2026-04-21 03:49 41.32985 -95.91458 4134 ft 269 kts 310°
2026-04-21 03:49 41.34417 -95.93040 4006 ft 267 kts 311°
2026-04-21 03:49 41.35857 -95.94635 3935 ft 271 kts 311°
2026-04-21 03:50 41.37302 -95.96231 3871 ft 270 kts 311°
2026-04-21 03:50 41.38941 -95.97530 3807 ft 286 kts 334°
2026-04-21 03:50 41.40979 -95.97795 3758 ft 302 kts
2026-04-21 03:50 41.42988 -95.96852 3696 ft 316 kts 28°
2026-04-21 03:51 41.44784 -95.95163 3694 ft 317 kts 34°
2026-04-21 03:51 41.46486 -95.93339 3691 ft 316 kts 49°
2026-04-21 03:51 41.47529 -95.90871 3922 ft 291 kts 78°
2026-04-21 03:51 41.47743 -95.88393 3990 ft 262 kts 104°
2026-04-21 03:52 41.47318 -95.86094 3961 ft 250 kts 125°
2026-04-21 03:52 41.46392 -95.84254 3959 ft 227 kts 154°
2026-04-21 03:52 41.45192 -95.83772 4135 ft 152 kts 198°
2026-04-21 03:52 41.44401 -95.84492 4389 ft 131 kts 232°
2026-04-21 03:53 41.43917 -95.85438 4631 ft 118 kts 237°
2026-04-21 03:53 41.43507 -95.86375 4708 ft 121 kts 239°
2026-04-21 03:53 41.43076 -95.87446 4323 ft 140 kts 239°
2026-04-21 03:53 41.42569 -95.88590 3929 ft 142 kts 232°
2026-04-21 03:54 41.41947 -95.89556 3520 ft 130 kts 226°
2026-04-21 03:54 41.41355 -95.90359 3096 ft 119 kts 224°
2026-04-21 03:54 41.40785 -95.91121 2665 ft 113 kts 221°
2026-04-21 03:54 41.40272 -95.91820 2506 ft 98 kts 221°
2026-04-21 03:55 41.39834 -95.92421 2492 ft 85 kts 220°
2026-04-21 03:55 41.39411 -95.92994 2497 ft 88 kts 221°
2026-04-21 03:55 41.38975 -95.93592 2498 ft 91 kts 221°
2026-04-21 03:55 41.38553 -95.94190 2485 ft 82 kts 220°
2026-04-21 03:56 41.38204 -95.94705 2487 ft 69 kts 220°
2026-04-21 03:56 41.37897 -95.95139 2499 ft 63 kts 218°
2026-04-21 03:56 41.37530 -95.95443 2499 ft 64 kts 207°
2026-04-21 03:56 41.37065 -95.95572 2510 ft 79 kts 196°
2026-04-21 03:57 41.36413 -95.95425 2501 ft 113 kts 174°
2026-04-21 03:57 41.35692 -95.94824 2498 ft 126 kts 160°
2026-04-21 03:57 41.35057 -95.94116 2488 ft 108 kts 161°
2026-04-21 03:57 41.34515 -95.93534 2265 ft 104 kts 163°
2026-04-21 03:58 41.33750 -95.92913 1891 ft 142 kts 144°
2026-04-21 03:58 41.32961 -95.92174 1646 ft 132 kts 141°
2026-04-21 03:58 41.32234 -95.91441 1314 ft 132 kts 140°
2026-04-21 03:58 41.31536 -95.90741 1099 ft 119 kts 147°
2026-04-21 03:59 41.30898 -95.90145 989 ft 101 kts 144°
2026-04-21 03:59 41.30488 -95.89760 993 ft 46 kts 146°
2026-04-21 03:59 41.30230 -95.89516 988 ft 44 kts 143°
2026-04-21 04:00 41.29797 -95.89108 987 ft 13 kts 152°
2026-04-21 04:00 41.29720 -95.89168 988 ft 18 kts 239°
2026-04-21 04:00 41.29703 -95.89377 987 ft 28 kts 269°
2026-04-21 04:00 41.29710 -95.89610 991 ft 0 kts 310°
2026-04-21 04:01 41.29761 -95.89632 989 ft 21 kts 344°
2026-04-21 04:01 41.29777 -95.89677 993 ft 5 kts 210°
2026-04-21 04:01 41.29752 -95.89710 989 ft 7 kts 257°
2026-04-21 04:01 41.29756 -95.89763 992 ft 0 kts 286°